[[{"header":{"parameterUnit":"m.s-1","parameterCategory":1,"la1":30.2991,"la2":30.254,"lo1":-89.0895,"lo2":-89.0444,"dy":0.0017,"dx":0.0017,"nx":28,"ny":28,"refTime":"2025-03-23T09:00:00:Z","depth":0,"parameterNumber":2,"parameterNumberName":"U-component_of_WINDS"},"data":[0,0,0,0,0,0,0,0,0,0,0,0,0,0,0,0,0,0,0,0,0,0,0,0,0,0,0,0,0,0,0,0,0,0,0,0,0,0,0,0,0,0,0,0,0,0,0,0,0,0,0,0,0,0,0,0,0,0,-2.6224,-2.6224,0,-2.6213,-2.6213,-2.6213,-2.6167,-2.6165,-2.6164,-2.6163,-2.6153,-2.6154,-2.6155,0,0,0,0,0,0,0,0,0,0,0,0,0,-2.6205,-2.6206,-2.6224,-2.6224,-2.6223,-2.6213,-2.6213,-2.6213,-2.6167,-2.6165,-2.6164,-2.6163,-2.6153,-2.6154,-2.6155,0,0,0,0,0,0,0,0,0,0,0,0,0,-2.6206,-2.6206,-2.6224,-2.6199,-2.6197,-2.6213,-2.6213,-2.6213,-2.6167,-2.6165,-2.6164,-2.6162,-2.6153,-2.6154,-2.6155,-2.6194,0,0,-2.6158,-2.6159,0,0,0,0,0,0,0,0,-2.6206,-2.6206,-2.6203,-2.6201,-2.6198,-2.6189,-2.6203,-2.6207,-2.6167,-2.6178,-2.6163,-2.6161,-2.6167,-2.6167,-2.6168,-2.6194,-2.6193,-2.6159,-2.6159,-2.616,-2.616,0,0,0,0,0,0,0,-2.6206,-2.6207,-2.6219,-2.6203,-2.62,-2.6189,-2.6187,-2.6203,-2.6182,-2.6177,-2.6174,-2.6173,-2.6165,-2.6167,-2.6168,-2.6193,-2.6159,-2.6159,-2.616,-2.6161,-2.6251,-2.6252,0,0,0,0,0,0,-2.6209,-2.6207,-2.622,-2.6219,-2.6198,-2.6191,-2.6189,-2.6194,-2.6182,-2.6178,-2.6175,-2.6171,-2.6166,-2.6166,-2.6167,-2.6212,-2.616,-2.6161,-2.6161,-2.6249,-2.6251,-2.6253,0,0,0,0,0,0,-2.6209,-2.6211,-2.622,-2.6212,-2.6212,-2.6193,-2.6199,-2.6195,-2.6196,-2.6179,-2.6176,-2.6181,-2.6165,-2.6166,-2.6188,-2.6211,-2.6161,-2.6162,-2.6247,-2.625,-2.6252,-2.6302,0,0,0,0,0,0,-2.6208,-2.6211,-2.6225,-2.6213,-2.6213,-2.6241,-2.62,-2.6196,-2.6198,-2.6194,-2.6184,-2.6181,-2.6164,-2.6186,-2.6189,-2.6211,-2.6163,-2.6245,-2.6248,-2.6251,-2.6298,-2.6306,-2.6313,0,0,0,0,0,-2.6208,-2.624,-2.6226,-2.6228,-2.6231,-2.6242,-2.6242,-2.6222,-2.6201,-2.6215,-2.6204,-2.6181,-2.6208,-2.6189,-2.6192,-2.6215,-2.6243,-2.6247,-2.6251,-2.6295,-2.6304,-2.6312,0,0,0,0,0,0,-2.6256,-2.6238,-2.6222,-2.6251,-2.6249,-2.6234,-2.6252,-2.6233,-2.6236,-2.6232,-2.6206,-2.6204,-2.623,-2.6225,-2.6204,-2.6252,-2.6222,-2.6227,-2.6254,-2.6263,-2.627,-2.6271,-2.6164,0,0,0,0,0,-2.6269,-2.628,-2.6264,-2.6291,-2.6291,-2.6272,-2.6276,-2.626,-2.6257,-2.6255,-2.6246,-2.6244,-2.6252,-2.6258,-2.6264,-2.6298,-2.6295,-2.6315,-2.6322,-2.6328,-2.6332,-2.6349,-2.6358,-2.6266,-2.6266,-2.6266,0,0,-2.6298,-2.629,-2.6298,-2.63,-2.6297,-2.6308,-2.6271,-2.6285,-2.6293,-2.6258,-2.6278,-2.6271,-2.6267,-2.6295,-2.6307,-2.6291,-2.6357,-2.6333,-2.6338,-2.6339,-2.6354,-2.6363,-2.6371,-2.6268,-2.6268,-2.6267,0,0,-2.6356,-2.6351,-2.6372,-2.637,-2.6364,-2.6352,-2.6357,-2.6346,-2.634,-2.636,-2.6333,-2.6344,-2.6358,-2.6356,-2.6357,-2.6415,-2.6394,-2.6418,-2.6455,-2.6472,-2.6479,-2.6486,-2.6506,-2.6513,-2.6422,-2.6422,-2.6422,0,-2.6392,-2.6408,-2.6386,-2.6402,-2.6404,-2.6372,-2.6394,-2.6392,-2.639,-2.6392,-2.6375,-2.6392,-2.6387,-2.6414,-2.6428,-2.643,-2.6435,-2.6418,-2.648,-2.6486,-2.6492,-2.6511,-2.6518,-2.6425,-2.6425,-2.6425,-2.6424,0,-2.6453,-2.6465,-2.6483,-2.6481,-2.6485,-2.6504,-2.6485,-2.6492,-2.6476,-2.6466,-2.6487,-2.648,-2.6484,-2.649,-2.6475,-2.6515,-2.6505,-2.6485,-2.6453,-2.6504,-2.6521,-2.6528,-2.6429,-2.6428,-2.6427,-2.6427,0,0,-2.6539,-2.6525,-2.6532,-2.653,-2.6523,-2.6531,-2.6549,-2.6553,-2.656,-2.6559,-2.6573,-2.6587,-2.6568,-2.6569,-2.6554,-2.6569,-2.6615,-2.6546,-2.6546,-2.6558,-2.6658,-2.6672,-2.6681,-2.6601,-2.6603,-2.6604,-2.6658,0,-2.6593,-2.6622,-2.6603,-2.6635,-2.6645,-2.6616,-2.6632,-2.6629,-2.662,-2.6628,-2.6618,-2.6627,-2.6602,-2.6602,-2.6616,-2.6606,-2.6634,-2.6602,-2.6614,-2.6614,-2.6614,-2.669,-2.6705,-2.6757,-2.6664,-2.6666,-2.6666,0,-2.666,-2.6662,-2.6695,-2.6685,-2.6689,-2.6703,-2.6705,-2.6714,-2.671,-2.6703,-2.6704,-2.6686,-2.6703,-2.6673,-2.6696,-2.6675,-2.6679,-2.6675,-2.6676,-2.6675,-2.6642,-2.669,-2.6773,-2.678,-2.6677,-2.6676,-2.6675,0,-2.6718,-2.673,-2.6751,-2.6751,-2.674,-2.6751,-2.6747,-2.6742,-2.6746,-2.6748,-2.675,-2.6755,-2.6757,-2.6761,-2.6745,-2.6725,-2.677,-2.6739,-2.6764,-2.6764,-2.6773,-2.6772,-2.6856,-2.6778,-2.6778,-2.6778,-2.6778,0,-2.678,-2.6801,-2.6777,-2.6789,-2.6812,-2.6791,-2.6814,-2.6808,-2.6804,-2.6815,-2.679,-2.6802,-2.6779,-2.6788,-2.6775,-2.6796,-2.6798,-2.6792,-2.6788,-2.6793,-2.6794,-2.6794,-2.679,-2.678,-2.6779,-2.6779,-2.6779,0,-2.6848,-2.6833,-2.6854,-2.6842,-2.684,-2.6857,-2.6848,-2.6859,-2.6849,-2.6863,-2.6866,-2.685,-2.6859,-2.6843,-2.6851,-2.6842,-2.6871,-2.6862,-2.6872,-2.6868,-2.6894,-2.6891,-2.6979,-2.699,-2.6906,-2.6907,-2.6908,0,-2.6888,-2.6904,-2.6894,-2.69,-2.6897,-2.6907,-2.691,-2.689,-2.6895,-2.6893,-2.6905,-2.6912,-2.6917,-2.6933,-2.6922,-2.6928,-2.6919,-2.6949,-2.6919,-2.6924,-2.6918,-2.6917,-2.6918,-2.6955,-2.6956,-2.6957,-2.6957,0,-2.696,-2.6952,-2.6958,-2.6962,-2.6967,-2.6969,-2.6969,-2.6975,-2.6954,-2.6961,-2.697,-2.6974,-2.6982,-2.6989,-2.6992,-2.6989,-2.697,-2.6967,-2.6973,-2.6978,-2.6982,-2.6979,-2.6887,-2.6965,-2.6964,-2.6964,-2.6963,-2.6963,-2.7015,-2.7027,-2.7022,-2.703,-2.7028,-2.7029,-2.7039,-2.703,-2.7037,-2.7042,-2.703,-2.7042,-2.7039,-2.7041,-2.7039,-2.7049,-2.7035,-2.7044,-2.7046,-2.7048,-2.7051,-2.6982,-2.7049,-2.7049,-2.7049,-2.7049,-2.7049,0,-2.7085,-2.708,-2.7088,-2.7089,-2.7095,-2.7077,-2.7076,-2.7083,-2.7093,-2.7092,-2.7097,-2.7108,-2.7115,-2.7105,-2.7111,-2.712,-2.7112,-2.7122,-2.7121,-2.712,-2.7064,-2.7058,-2.7129,-2.7129,-2.7129,-2.7129,-2.7129,-2.7129,-2.7122,-2.7141,-2.7133,-2.7151,-2.7147,-2.7158,-2.7159,-2.716,-2.7159,-2.7172,-2.7177,-2.7171,-2.7166,-2.7171,-2.7177,-2.7174,-2.7177,-2.7191,-2.7185,-2.7132,-2.7124,-2.7116,-2.7111,-2.7192,-2.7192,-2.724,-2.724,-2.7241]},{"header":{"parameterUnit":"m.s-1","parameterCategory":1,"la1":30.2991,"la2":30.254,"lo1":-89.0895,"lo2":-89.0444,"dy":0.0017,"dx":0.0017,"nx":28,"ny":28,"refTime":"2025-03-23T09:00:00:Z","depth":0,"parameterNumber":3,"parameterNumberName":"V-component_of_WINDS"},"data":[0,0,0,0,0,0,0,0,0,0,0,0,0,0,0,0,0,0,0,0,0,0,0,0,0,0,0,0,0,0,0,0,0,0,0,0,0,0,0,0,0,0,0,0,0,0,0,0,0,0,0,0,0,0,0,0,0,0,3.5649,3.5649,0,3.5738,3.5739,3.574,3.5729,3.5728,3.5726,3.5725,3.5818,3.5822,3.5825,0,0,0,0,0,0,0,0,0,0,0,0,0,3.5469,3.5472,3.5648,3.565,3.5651,3.5738,3.574,3.5741,3.5729,3.5728,3.5726,3.5724,3.5817,3.5821,3.5826,0,0,0,0,0,0,0,0,0,0,0,0,0,3.5551,3.5473,3.5648,3.5655,3.5657,3.5738,3.574,3.5741,3.573,3.5727,3.5725,3.5723,3.5815,3.5821,3.5826,3.5906,0,0,3.5844,3.5846,0,0,0,0,0,0,0,0,3.5547,3.5558,3.5653,3.5655,3.5657,3.572,3.571,3.5796,3.573,3.5702,3.5725,3.5722,3.5787,3.5795,3.5817,3.591,3.5914,3.5844,3.5848,3.585,3.5852,0,0,0,0,0,0,0,3.5541,3.5554,3.5684,3.5655,3.5657,3.5655,3.5664,3.5727,3.5756,3.5704,3.5704,3.5715,3.5788,3.5811,3.5819,3.5916,3.5844,3.5849,3.5853,3.5855,3.6081,3.6083,0,0,0,0,0,0,3.5533,3.5549,3.5681,3.5687,3.5595,3.566,3.567,3.5702,3.5755,3.5761,3.5716,3.5714,3.5803,3.5812,3.5822,3.592,3.585,3.5856,3.5859,3.6078,3.6081,3.6084,0,0,0,0,0,0,3.5529,3.5545,3.5678,3.5618,3.5635,3.5665,3.5701,3.5705,3.5729,3.5764,3.577,3.5735,3.5801,3.5814,3.5886,3.5923,3.5858,3.5864,3.6075,3.6079,3.6083,3.6116,0,0,0,0,0,0,3.5524,3.5544,3.5574,3.5619,3.5638,3.5739,3.5703,3.5708,3.5738,3.5736,3.5783,3.5789,3.58,3.5877,3.5891,3.593,3.5868,3.6072,3.6077,3.6082,3.6111,3.612,3.6127,0,0,0,0,0,3.5518,3.5579,3.5575,3.5591,3.5676,3.5741,3.5752,3.5764,3.5741,3.5772,3.5796,3.5787,3.5917,3.5884,3.59,3.5941,3.607,3.6076,3.6081,3.6108,3.6118,3.6127,0,0,0,0,0,0,3.5538,3.5585,3.5581,3.5659,3.5696,3.5739,3.5778,3.5775,3.5819,3.5815,3.5828,3.5839,3.5911,3.5933,3.5897,3.6022,3.599,3.5999,3.6005,3.6015,3.6023,3.6016,3.5873,0,0,0,0,0,3.5552,3.56,3.5639,3.5704,3.5723,3.5747,3.5776,3.5782,3.5821,3.5837,3.5865,3.5904,3.5953,3.5985,3.6033,3.6114,3.6125,3.6151,3.6159,3.6165,3.6173,3.6219,3.6231,3.6103,3.6103,3.6103,0,0,3.558,3.5612,3.5641,3.5709,3.5738,3.5789,3.5761,3.5815,3.5853,3.5845,3.5915,3.5937,3.5981,3.6058,3.6094,3.6079,3.6211,3.6172,3.6177,3.6182,3.6226,3.6238,3.6249,3.6107,3.6106,3.6105,0,0,3.5658,3.5686,3.5744,3.5774,3.5819,3.5835,3.5849,3.5893,3.5908,3.5977,3.5973,3.6019,3.6103,3.6135,3.6162,3.6254,3.6248,3.6269,3.6311,3.6356,3.6366,3.6375,3.6408,3.642,3.6276,3.6277,3.6277,0,3.5687,3.5763,3.5774,3.5829,3.586,3.5855,3.5914,3.5943,3.6001,3.6023,3.6005,3.6112,3.6141,3.6227,3.6249,3.6271,3.6288,3.6263,3.6364,3.6373,3.6381,3.6413,3.6426,3.6279,3.6279,3.6278,3.6278,0,3.5798,3.585,3.5891,3.5948,3.5983,3.604,3.606,3.6094,3.6098,3.6116,3.6188,3.6223,3.6278,3.6299,3.6303,3.6385,3.6375,3.636,3.6329,3.6396,3.6426,3.6438,3.6282,3.6281,3.6281,3.628,0,0,3.589,3.5953,3.5968,3.5994,3.6044,3.6085,3.6142,3.6196,3.6225,3.6266,3.6315,3.6387,3.6374,3.6405,3.6413,3.6452,3.6523,3.6433,3.6434,3.6449,3.6618,3.6629,3.6643,3.652,3.6522,3.6524,3.6614,0,3.5973,3.6074,3.6086,3.6176,3.6225,3.6223,3.6273,3.6309,3.6328,3.6373,3.6395,3.6446,3.6425,3.6444,3.6482,3.6506,3.6558,3.65,3.6566,3.6569,3.6556,3.6658,3.667,3.6753,3.6626,3.6628,3.663,0,3.6083,3.6127,3.6222,3.6266,3.6287,3.6332,3.6383,3.6426,3.6467,3.6479,3.6514,3.6517,3.6577,3.6543,3.6627,3.6587,3.6615,3.6632,3.6635,3.6642,3.6603,3.6669,3.678,3.6793,3.6648,3.6647,3.6646,0,3.6142,3.6225,3.6292,3.6315,3.6368,3.64,3.6423,3.6463,3.6495,3.6539,3.656,3.6611,3.664,3.668,3.6697,3.667,3.678,3.6747,3.6791,3.6791,3.6815,3.6813,3.6933,3.6832,3.6832,3.6832,3.6831,0,3.6233,3.6292,3.632,3.6361,3.6427,3.6441,3.6506,3.6529,3.6564,3.6611,3.6612,3.6656,3.6675,3.6722,3.6736,3.6804,3.6816,3.6828,3.6831,3.6828,3.6827,3.6847,3.6842,3.6835,3.6834,3.6833,3.6833,0,3.631,3.6331,3.6405,3.6449,3.6462,3.6509,3.6547,3.6588,3.6607,3.6666,3.6681,3.6711,3.6766,3.6787,3.6855,3.6864,3.6943,3.6941,3.6929,3.693,3.6974,3.697,3.7111,3.713,3.7016,3.7017,3.7018,0,3.6367,3.6412,3.6462,3.6493,3.6518,3.6568,3.6601,3.6617,3.6651,3.6703,3.6738,3.6793,3.6839,3.6928,3.6956,3.7009,3.7008,3.7054,3.7016,3.7012,3.701,3.7007,3.7013,3.7061,3.7063,3.7063,3.7064,0,3.6467,3.6475,3.6522,3.6574,3.6613,3.6654,3.6694,3.6719,3.6742,3.678,3.6837,3.6872,3.6942,3.6998,3.7052,3.7077,3.7075,3.7076,3.7089,3.7087,3.7079,3.7085,3.6949,3.7073,3.7072,3.7071,3.7071,3.707,3.6536,3.6577,3.6618,3.6671,3.6703,3.674,3.6781,3.6805,3.6853,3.6911,3.6918,3.698,3.7021,3.7094,3.7121,3.717,3.7158,3.7177,3.7182,3.7186,3.719,3.707,3.718,3.718,3.718,3.7179,3.7179,0,3.6637,3.6664,3.6712,3.6768,3.681,3.6804,3.6848,3.6884,3.6938,3.6977,3.7022,3.7088,3.7142,3.7175,3.723,3.7263,3.7263,3.7276,3.7275,3.7281,3.7197,3.7181,3.7275,3.7275,3.7275,3.7275,3.7275,3.7275,3.6694,3.6762,3.6776,3.686,3.6887,3.6947,3.6973,3.7008,3.7039,3.7113,3.7158,3.7179,3.7216,3.7274,3.7324,3.7332,3.7352,3.7367,3.7374,3.7296,3.7286,3.7277,3.7261,3.7371,3.7371,3.7454,3.7454,3.7455]}]]